Regional Weather Roundup
Issued by NWS New Orleans/Baton Rouge, LA

Home | Current Version | Previous Version | Graphics & Text | Print | Product List | Glossary On
Versions: 1 2 3 4 5 6 7 8 9 10 11 12 13 14 15 16 17 18 19 20 21 22 23 24 25 26 27 28 29 30 31 32 33 34 35 36 37 38 39 40 41 42 43 44 45 46 47 48 49 50
500
ASUS44 KLIX 310510
RWRLIX
NEW ORLEANS REGIONAL WEATHER ROUNDUP
NATIONAL WEATHER SERVICE NEW ORLEANS LA
1200 AM CDT SUN AUG 31 2014

NOTE: "FAIR" INDICATES FEW OR NO CLOUDS BELOW 12,000 FEET WITH NO
      SIGNIFICANT WEATHER AND/OR OBSTRUCTIONS TO VISIBILITY.
      SKY/WX - SKY CONDITION AND SIGNIFICANT WEATHER.
      TMP - AIR TEMPERATURE.     DP    - DEWPOINT TEMPERATURE.
      RH  - RELATIVE HUMIDITY.   PRES  - PRESSURE.
      HI  - HEAT INDEX.          WCI   - WIND CHILL INDEX.

*  THESE STATIONS ARE NOT NWS OR FAA STATIONS AND ARE NOT UNDER
   NWS QUALITY CONTROL.

LAZ038-040-048-061>063-065>067-069-310600-
SOUTHEAST LOUISIANA

CITY           SKY/WX    TMP DP  RH WIND       PRES   REMARKS
N.O. AUDUBON     N/A     78  75  89 MISG        N/A
N.O. INTL ARPT CLOUDY    76  73  91 SE6       30.04F
N.O. LAKEFRONT   N/A    N/A N/A N/A MISG      30.05F
N.O. DOWNTOWN*   N/A     84  70  61 E3        30.05F
SLIDELL        MOCLDY    74  72  93 CALM      30.05F
BATON ROUGE    CLOUDY    74  71  91 E3        30.02S
BOOTHVILLE     CLOUDY    83  80  91 SE3       30.06F HX  95
BELLE CHASSE   MOCLDY    75  71  87 CALM      30.04F
BOGALUSA*        N/A     76  72  87 CALM      30.06F
GALLIANO*      NOT AVBL
NEW ROADS*       N/A     73  72  98 NE3       30.02S
GONZALES*        N/A     75  75 100 SE3       30.02F
HAMMOND*       CLOUDY    73  72  94 E5        30.05F
HOUMA*         CLOUDY    73  71  91 E3        30.04F
PORT FOURCHON* MOCLDY    79  73  83 NE6       30.06F

$$

MSZ070-080>082-310600-
SOUTHERN MISSISSIPPI

CITY           SKY/WX    TMP DP  RH WIND       PRES   REMARKS
MCCOMB         CLOUDY    73  72  96 CALM      30.06S
GULFPORT       MOCLDY    75  74  96 CALM      30.06S
BILOXI         MOCLDY    77  74  92 E5        30.06F
PASCAGOULA     LGT RAIN  75  73  93 CALM      30.07S

$$

COASTAL OBSERVATIONS
LAKE AND NEARSHORE STATIONS

STATION/POSITION TIME  TEMP    WIND        PRES    WAVE
                       AIR SEA DIR/SP/G            HT/PER
                 (UTC) (F)     (DEG/KT/KT) (MB)    (FT/S)
PASCAGOULA       0500   85     170/  6/  9 1017.5
WAVELAND YACHT   0500   79      90/  3/  4 1017.0
GRAND ISLE       0500   80 84  350/  4/  5 1018.3
SOUTHWEST PASS   0500   85 90  170/ 10/ 13 1018.0
NEW CANAL        0500   76 80  150/  3/  4 1017.9
SHELL BEACH      0500   80 80   90/  3/  5 1017.5

OFFSHORE STATIONS

STATION/POSITION TIME  TEMP    WIND        PRES    WAVE
                       AIR SEA DIR/SP/G            HT/PER
                 (UTC) (F)     (DEG/KT/KT) (MB)    (FT/S)

$$




USA.gov is the U.S. government's official web portal to all federal, state and local government web resources and services.